Weather History for Beatrice, NE

Change the Weather History Date:

Wednesday, January 26, 2000

  Actual Average Record
Temperature  
Mean Temperature 17 °F -  
Max Temperature 26 °F 36 °F 66 °F (2002)
Min Temperature 8 °F 17 °F -10 °F (1950)
Degree Days  
Heating Degree Days 48    
Moisture  
Dew Point 6 °F    
Average Humidity 58    
Maximum Humidity 85    
Minimum Humidity 40    
Precipitation  
Precipitation 0.00 in - - ()
Sea Level Pressure  
Sea Level Pressure 30.28 in    
Wind  
Wind Speed 6 mph (East)    
Max Wind Speed 10 mph    
Max Gust Speed -    
Visibility 10 miles    
Events      
Averages and records for this station are not official NWS values.
T = Trace of Precipitation, MM = Missing Value Source: NWS Daily Summary

Daily Weather History Graph

Daily Weather History Graph

Search for Another Location

Airport:

Trip Planner

Search our weather history database for the weather conditions in past years. The results will help you decide how hot, cold, wet, or windy it might be!

Date:

Astronomy

Jan. 26, 2000 Rise Set
Actual Time 7:41 AM CST 5:37 PM CST
Civil Twilight 7:12 AM CST 6:06 PM CST
Nautical Twilight 6:39 AM CST 6:39 PM CST
Astronomical Twilight 6:07 AM CST 7:12 PM CST
Moon 11:57 PM CST (1/26) 11:09 AM CST (1/26)
Length of Visible Light 10h 54m
Length of Day
9h 55m
Waning Gibbous, 66% of the Moon is Illuminated
Jan 26
Waning Gibbous
Jan 28
Last Quarter
Feb 5
New
Feb 12
First Quarter
Feb 19
Full

Hourly Weather History & Observations

Time (CST) Temp. Windchill Dew Point Humidity Pressure Visibility Wind Dir Wind Speed Gust Speed Precip Events Conditions
12:13 AM 15.8 °F 6.1 °F 6.8 °F 68% 30.28 in 10.0 mi NE 6.9 mph - N/A   Clear
12:30 AM 15.8 °F 7.2 °F 6.8 °F 68% 30.28 in 10.0 mi NE 5.8 mph - N/A   Clear
12:53 AM 15.8 °F 7.2 °F 6.8 °F 68% 30.28 in 10.0 mi NE 5.8 mph - N/A   Clear
1:09 AM 15.8 °F 8.6 °F 6.8 °F 68% 30.27 in 10.0 mi ENE 4.6 mph - N/A   Clear
1:31 AM 15.8 °F 8.6 °F 6.8 °F 68% 30.27 in 10.0 mi ENE 4.6 mph - N/A   Clear
6:52 AM 10.4 °F -1.5 °F 3.2 °F 73% 30.27 in 10.0 mi ENE 8.1 mph - N/A   Clear
7:09 AM 10.4 °F 0.8 °F 3.2 °F 73% 30.28 in 10.0 mi ENE 5.8 mph - N/A   Clear
7:30 AM 10.4 °F 4.0 °F 3.2 °F 73% 30.28 in 10.0 mi ENE 3.5 mph - N/A   Clear
7:55 AM 8.6 °F -1.3 °F 3.2 °F 79% 30.29 in 10.0 mi East 5.8 mph - N/A   Clear
8:10 AM 8.6 °F 0.1 °F 1.4 °F 73% 30.29 in 10.0 mi East 4.6 mph - N/A   Clear
8:30 AM 8.6 °F -3.7 °F 5.0 °F 85% 30.29 in 10.0 mi East 8.1 mph - N/A   Clear
8:51 AM 10.4 °F -2.4 °F 6.8 °F 85% 30.30 in 10.0 mi East 9.2 mph - N/A   Clear
9:10 AM 10.4 °F -3.3 °F 5.0 °F 79% 30.30 in 10.0 mi East 10.4 mph - N/A   Clear
9:31 AM 12.2 °F -0.2 °F 6.8 °F 79% 30.31 in 10.0 mi East 9.2 mph - N/A   Clear
9:50 AM 12.2 °F -0.2 °F 6.8 °F 79% 30.32 in 10.0 mi East 9.2 mph - N/A   Clear
10:31 AM 14.0 °F 3.9 °F 6.8 °F 73% 30.32 in 10.0 mi SE 6.9 mph - N/A   Clear
10:53 AM 15.8 °F 6.1 °F 5.0 °F 62% 30.32 in 10.0 mi ESE 6.9 mph - N/A   Clear
11:12 AM 15.8 °F 6.1 °F 6.8 °F 68% 30.32 in 10.0 mi SE 6.9 mph - N/A   Clear
11:52 AM 17.6 °F 10.7 °F 6.8 °F 63% 30.31 in 10.0 mi SSE 4.6 mph - N/A   Clear
12:10 PM 19.4 °F 11.5 °F 6.8 °F 58% 30.30 in 10.0 mi ESE 5.8 mph - N/A   Clear
12:32 PM 19.4 °F 10.4 °F 5.0 °F 54% 30.28 in 10.0 mi ESE 6.9 mph - N/A   Clear
12:50 PM 21.2 °F 12.6 °F 6.8 °F 54% 30.28 in 10.0 mi SE 6.9 mph - N/A   Clear
1:51 PM 23.0 °F - 5.0 °F 46% 30.26 in 10.0 mi Calm Calm - N/A   Clear
2:11 PM 24.8 °F 15.3 °F 5.0 °F 43% 30.25 in 10.0 mi ESE 9.2 mph - N/A   Clear
2:30 PM 24.8 °F 16.9 °F 3.2 °F 40% 30.24 in 10.0 mi ESE 6.9 mph - N/A   Clear
2:51 PM 24.8 °F 16.9 °F 3.2 °F 40% 30.24 in 10.0 mi SE 6.9 mph - N/A   Clear
3:12 PM 24.8 °F 16.9 °F 5.0 °F 43% 30.24 in 10.0 mi ESE 6.9 mph - N/A   Clear
3:34 PM 26.6 °F 20.0 °F 6.8 °F 43% 30.23 in 10.0 mi ENE 5.8 mph - N/A   Clear
3:50 PM 26.6 °F 19.1 °F 6.8 °F 43% 30.24 in 10.0 mi ESE 6.9 mph - N/A   Clear
4:11 PM 26.6 °F 19.1 °F 5.0 °F 40% 30.24 in 10.0 mi East 6.9 mph - N/A   Clear
4:30 PM 26.6 °F 18.2 °F 5.0 °F 40% 30.24 in 10.0 mi East 8.1 mph - N/A   Clear
4:49 PM 24.8 °F 16.1 °F 5.0 °F 43% 30.25 in 10.0 mi East 8.1 mph - N/A   Clear
5:31 PM 24.8 °F 16.1 °F 5.0 °F 43% 30.25 in 10.0 mi East 8.1 mph - N/A   Scattered Clouds
5:50 PM 24.8 °F 16.1 °F 6.8 °F 46% 30.26 in 10.0 mi East 8.1 mph - N/A   Scattered Clouds
6:29 PM 23.0 °F 14.7 °F 5.0 °F 46% 30.26 in 10.0 mi East 6.9 mph - N/A   Clear
6:52 PM 23.0 °F 14.7 °F 6.8 °F 50% 30.27 in 10.0 mi East 6.9 mph - N/A   Clear
7:09 PM 23.0 °F 14.7 °F 6.8 °F 50% 30.28 in 10.0 mi East 6.9 mph - N/A   Scattered Clouds
7:30 PM 21.2 °F 11.7 °F 5.0 °F 50% 30.29 in 10.0 mi East 8.1 mph - N/A   Scattered Clouds
7:52 PM 21.2 °F 11.7 °F 6.8 °F 54% 30.29 in 10.0 mi East 8.1 mph - N/A   Scattered Clouds
8:09 PM 21.2 °F 10.9 °F 5.0 °F 50% 30.29 in 10.0 mi East 9.2 mph - N/A   Scattered Clouds
8:34 PM 21.2 °F 12.6 °F 5.0 °F 50% 30.29 in 10.0 mi East 6.9 mph - N/A   Mostly Cloudy
8:53 PM 21.2 °F 14.9 °F 3.2 °F 46% 30.30 in 10.0 mi East 4.6 mph - N/A   Scattered Clouds
9:14 PM 19.4 °F 12.8 °F 5.0 °F 54% 30.30 in 10.0 mi East 4.6 mph - N/A   Clear
9:33 PM 19.4 °F 12.8 °F 5.0 °F 54% 30.31 in 10.0 mi East 4.6 mph - N/A   Clear
9:49 PM 19.4 °F 12.8 °F 6.8 °F 58% 30.31 in 10.0 mi East 4.6 mph - N/A   Scattered Clouds
10:12 PM 19.4 °F 12.8 °F 5.0 °F 54% 30.32 in 10.0 mi ESE 4.6 mph - N/A   Scattered Clouds
10:29 PM 19.4 °F 12.8 °F 6.8 °F 58% 30.32 in 10.0 mi East 4.6 mph - N/A   Clear
11:29 PM 21.2 °F 14.9 °F 6.8 °F 54% 30.33 in 10.0 mi East 4.6 mph - N/A   Overcast
11:49 PM 21.2 °F 13.6 °F 6.8 °F 54% 30.33 in 10.0 mi East 5.8 mph - N/A   Overcast